Tracking 18840 objects as of 18-November-2017
HD Live streaming from Space Station
objects crossing your sky now

FENGYUN 1C DEB

Track FENGYUN 1C DEB now!
10-day predictions


NORAD ID: 31670
Int'l Code: 1999-025CCC
Perigee: 838.0 km
Apogee: 1,233.2 km
Inclination: 98.4 °
Period: 105.7 minutes
Semi major axis: 7406 km
RCS: 0.0137 m2 (small)
Launch date: May 10, 1999
Source: People's Republic of China (PRC)
Launch site: Taiyaun Space Center, China (TSC)

Note: This is SATELLITE DEBRIS
aabbcc
Your satellite tracking list
Your tracking list is empty




NASA's NSSDC Master Catalog

Two Line Element Set (TLE):
1 31670U 99025CCC 17322.38759889  .00000339  00000-0  38319-3 0  9996
2 31670  98.4286 175.1412 0266759 188.6058 171.0465 13.61987473521043
Source of the keplerian elements: AFSPC